STARLINK-34100, 64385

Orbit data source: Space-Track

STARLINK-34100, 64385 is a payload satellite owned by SpaceX/Seattle (US) in LEO that was launched on Fri, 13 Jun 2025 UTC via an FALCON 9 launch vehicle from the Air Force Eastern Test Range (AFETR). Payload-class satellites include a variety of spacecraft equipped with specific instruments for various scientific and technological missions. These include communications satellites like Starlink; space stations such as the ISS; scientific satellites like the Hubble; Earth observation satellites from companies like Planet Labs, Umbra, and HawkEye 360; GPS; miniature CubeSats for education and research; and military/defense satellites.

Loading next visibility...
Identifier
64385, 2025-127R
Orbit
LEO
Country
Flag of USUS
Related business
Manufacturer
SpaceX/Seattle
Mission
Operational Commercial Communications
Bus & Motor
STARLINK V2MO, Unknown motor
Mass
575 kg wet, ~530 kg dry
Launch date (UTC)
2025-06-13 (10 months ago)
Launch vehicle
FALCON 9
Launch site
Air Force Eastern Test Range (AFETR)
Object type
Payload
Rocket body
Debris
Shape & HBR
Box + 2 Pan, 17.7 m
Radar Cross Section
36.964 m², Large (>1 m²)

Expand to show TLE details & history
Last TLE update: 11 hours ago

TLE from 11 hours ago
0 STARLINK-34100
1 64385U 25127R   26095.23539957  .00044818  00000-0  16261-2 0  9991
2 64385  43.0014  30.1496 0001619 273.3941  86.6726 15.27624139 46475
Epoch: 2026-04-05T05:38Z
TLE epoch observation values (Epoch: 2026-04-05T05:38:58.522Z)
Latitude
Longitude
111.86203°
Altitude
482.628 km
Speed
7.626 km/s
True Right ascension
02h 00m 35s
True Declination
0° 00' 00"
Sunlit
Object was in daylight at epoch
Visualization orbit readout
Latitude
Unknown
Longitude
Unknown
Altitude
Unknown
Speed
Unknown
Apparent Right ascension
Unknown
Apparent Declination
Unknown
Sunlit
N/A
Visualization observer readout
Local Sidereal Time
22:25:21
Azimuth
Unknown
Elevation
Unknown
Doppler factor
Unknown
Orbital elements
Apogee altitude
485.973 km
Perigee altitude
483.751 km
Semi-major axis
6,862.999 km
Eccentricity
0.00016
Inclination
43.0014°
RAAN
30.1496°
Arg. of periapsis
273.3941°
True anomaly
86.69112°
Mean anomaly
86.6726°
Eccentric anomaly
86.68186°
Mean motion
3.81744 °/min
Orbital period
94.3 mins
BSTAR
0.0016261
Loading maneuver chart data...
Computing Atmospheric mass density...
Loading historical data...
Loading historical data...
Loading historical data...
Loading historical data...
Loading historical data...
Loading historical data...
Loading historical data...

Documentation

Showing up to 5 results
|